Location: Maccacari
(45.1333°N, 11.1333°E)
Time: 00:40:43
(UTC+00:00)

A-11 Canister half - Pass Details

Date: 23 January 2021
Orbit: 1525 x 1684 km, 47.3° (Epoch: 07 March)

Event Time Altitude Azimuth Distance (km) Brightness Sun altitude
Rises 18:58:11 0° 289° (WNW) 4,745 12.6 -29.4°
Reaches altitude 10° 19:01:13 10° 288° (WNW) 3,779 11.9 -29.9°
Maximum altitude 19:10:50 78° 205° (SSW) 1,648 9.0 -31.6°
Enters shadow 19:13:06 58° 136° (SE) 1,845 9.0 -32.0°
Drops below altitude 10° 19:20:46 10° 121° (ESE) 3,896 - -33.3°
Sets 19:23:57 0° 120° (ESE) 4,898 - -33.9°
